Home Session History Contact

Recorded Sessions


prev .. 6 7 8 9 10 11 12 13 14 15 16 17 18 19 20 21 22 23 24 25 26 27 .. Next

    Target # Date Color Temperature Texture Feelings Assumptions Description Comments
801. 1049-7138 12/03/2011 10:24 AM car
802. 0248-9157 11/29/2011 9:25 PM grey, silver, white silky, smooth dress
803. 7915-3824 11/29/2011 9:22 PM blue, red, brown chilly rough, dots
804. 2349-7137 11/28/2011 9:22 PM Red Warm humid Calm tranquil
805. 7893-4683 11/27/2011 6:20 AM red 18 a love tense love nothing
806. 5783-3594 11/12/2011 11:39 AM red
807. 3804-2613 11/08/2011 6:14 PM green gray brown cool antique happy development
808. 0157-7246 11/01/2011 2:48 PM green, blue
809. 9150-8249 10/28/2011 9:32 AM city
810. 5713-4804 10/28/2011 9:32 AM birds
811. 4571-9480 10/28/2011 9:31 AM red, white cold rough calm barn
812. 7904-2613 10/23/2011 2:54 PM blue, yellow, green cool, hot rough, plain, The sun, mountain, water The sun, mountain, storm
813. 4468-8359 10/23/2011 2:52 PM red 69 soft it is a pillow My assumtions is, it is a pillow square and soft
814. 5783-3572 10/23/2011 2:49 PM Red 70 smooth but hard round A red ball
815. 9026-7815 10/23/2011 10:59 AM black 29 bold bad number
816. 6268-9359 10/22/2011 12:49 AM blue green cool nice good
817. 0359-9168 10/18/2011 7:38 PM red blue 64 sky leaves warm love
818. 7804-2713 10/15/2011 4:21 PM white, green, light blue, dark brown, gold/yellow ambient wood, natural comfortable, not alert, love flowers, wood, window or frame, water, forest, wooden cake holder type of thing
819. 1880-5682 10/14/2011 10:19 PM light and dark
820. 8046-6837 10/14/2011 10:07 PM yellow and blue cold tender but can be hard has something to do with water like water
821. 4602-2494 10/14/2011 10:03 PM orange blue       purple hot and cold soft beach
822. 5913-3794 10/14/2011 10:01 PM yellow white red green mild and hot soft easy to remember what is the next number numbers in a row but are not in order none
823. 3359-0261 10/09/2011 12:40 PM Grey Stone House
824. 7824-5713 10/09/2011 12:13 PM Green
825. 0125-5926 10/09/2011 7:07 AM Grey Cold Rocky Block Building or structure
826. 2379-9150 10/09/2011 6:34 AM Green Windy Smooth ., tree like Open Forrest A field or trees
827. 6682-3591 10/09/2011 6:32 AM Red Warm Smooth Happy Red ball Round or oval in shape
828. 6125-5913 10/06/2011 8:55 AM orange yellow 18 calm/breeze
829. 9268-9359 10/02/2011 7:35 PM Silver Cold Cold, hard, metal Empty A storage area for a pet shop A warehouse
830. 3571-1370 10/01/2011 4:49 PM green room temperature smooth happy
831. 2359-0269 10/01/2011 4:49 PM black clock....
832. 1046-6138 10/01/2011 4:47 PM red cold rough happy
833. 1682-0594 10/01/2011 4:45 PM dark blue 65F wet Sad Raining
834. 0137-8046 10/01/2011 4:44 PM blue 72F moist calm Beautiful
835. 8013-4805 09/28/2011 6:49 PM White yellow green
836. 5780-1572 09/28/2011 6:35 PM Green, brown, grey Warm 18 Rough Warm humid
837. 0238-6057 09/28/2011 5:35 AM blue humid square soft wildlife a landscape
838. 8046-7135 09/20/2011 5:29 PM white church
839. 8935-6037 09/19/2011 10:19 PM yellow blue cool soft hard good
840. 6824-4915 09/19/2011 10:19 PM orange hot rough great
841. 4427-1583 09/13/2011 3:28 PM Yellow Hot Soft Fluffy
842. 0137-8049 09/05/2011 2:31 AM white
843. 6460-1372 09/05/2011 2:28 AM red hot heat
844. 0003-9170 09/05/2011 2:26 AM blue
845. 0137-5916 08/29/2011 11:34 AM red 27 yes cool ok ok ok
846. 2679-0471 08/28/2011 5:02 AM bright yellow, blue fluffy, delicate
847. 4268-9357 08/28/2011 4:42 AM red, yellow, white 76 soft fabric, quilt wet, damp quilt or blanket
848. 5793-1502 08/26/2011 12:54 PM Red
849. 1680-1571 08/26/2011 12:48 PM Blue Hot BLUE Warm
850. 2248-9158 08/20/2011 1:34 PM red hot smooth cold, scared help chaos

prev .. 6 7 8 9 10 11 12 13 14 15 16 17 18 19 20 21 22 23 24 25 26 27 .. Next






Date & Time in Pacific Time
Copyright 2019 DevelopESP.com All rights reserved.